FW8325 Weather Reports


Display with metric or nautical units.
time (UTC)temp
F
wind
direction
speed
MPH
gust
MPH
rain 1hr
in
rain 24hr
in
rain mn
in
humidity
%
barometer
mb
20260502231633 64 240 2.0 14.0 0.00 0.00 0.00 24 1016.8
20260502230628 64 260 2.0 9.0 0.00 0.00 0.00 28 1017.0
20260502225624 62 36 0.0 0.0 0.00 0.00 0.00 30 1017.1
20260502224656 62 40 0.0 0.0 0.00 0.00 0.00 36 1017.1
20260502223630 61 42 0.0 0.0 0.00 0.00 0.00 39 1017.2
20260502222626 60 42 0.0 0.0 0.00 0.00 0.00 45 1017.3
20260502221621 60 42 0.0 0.0 0.00 0.00 0.00 45 1017.3
20260502220617 58 55 0.0 0.0 0.00 0.00 0.00 51 1017.5
20260502215631 57 65 0.0 0.0 0.00 0.00 0.00 51 1017.7
20260502214626 58 53 0.0 0.0 0.00 0.00 0.00 45 1017.7
20260502213620 60 45 0.0 0.0 0.00 0.00 0.00 54 1017.9
20260502212617 60 35 0.0 0.0 0.00 0.00 0.00 40 1018.0
20260502211627 60 13 0.0 0.0 0.00 0.00 0.00 38 1018.1
20260502210619 60 15 0.0 1.0 0.00 0.00 0.00 38 1018.2
20260502205653 59 5 0.0 4.0 0.00 0.00 0.00 43 1018.4
20260502204623 57 17 1.0 6.0 0.00 0.00 0.00 42 1018.4
20260502203619 57 338 0.0 0.0 0.00 0.00 0.00 47 1018.5
20260502202631 58 60 0.0 0.0 0.00 0.00 0.00 46 1018.6
20260502201623 57 22 0.0 0.0 0.00 0.00 0.00 43 1018.6
20260502200654 57 34 0.0 0.0 0.00 0.00 0.00 52 1018.8
20260502195628 56 33 0.0 0.0 0.00 0.00 0.00 50 1018.8
20260502194619 56 19 0.0 0.0 0.00 0.00 0.00 52 1018.9
20260502193635 56 11 0.0 0.0 0.00 0.00 0.00 44 1019.0
20260502192645 55 10 0.0 0.0 0.00 0.00 0.00 48 1019.1
20260502191656 53 38 0.0 0.0 0.00 0.00 0.00 57 1019.3
20260502190649 52 44 0.0 0.0 0.00 0.00 0.00 56 1019.5
20260502185641 51 51 0.0 0.0 0.00 0.00 0.00 55 1019.6
20260502184634 50 62 0.0 0.0 0.00 0.00 0.00 55 1019.8
20260502183626 51 61 0.0 0.0 0.00 0.00 0.00 57 1020.0
20260502182624 51 48 0.0 0.0 0.00 0.00 0.00 52 1020.1
20260502181616 51 38 0.0 0.0 0.00 0.00 0.00 58 1020.3
20260502180624 51 36 0.0 0.0 0.00 0.00 0.00 61 1020.4
20260502163618 48 44 0.0 0.0 0.00 0.00 0.00 60 1020.9
20260502162633 47 63 0.0 0.0 0.00 0.00 0.00 62 1021.1
20260502161626 47 104 0.0 0.0 0.00 0.00 0.00 60 1021.0
20260502160641 48 104 0.0 0.0 0.00 0.00 0.00 60 1021.1
20260502151649 45 104 0.0 0.0 0.00 0.00 0.00 65 1021.3
20260502150639 45 104 0.0 0.0 0.00 0.00 0.00 63 1021.3
20260502130622 38 360 0.0 0.0 0.00 0.00 0.00 65 1021.1
20260502123629 35 265 0.0 0.0 0.00 0.00 0.00 69 1021.0
20260502122644 36 252 0.0 0.0 0.00 0.00 0.00 66 1021.0
20260502121657 35 252 0.0 0.0 0.00 0.00 0.00 70 1021.0
20260502120625 35 252 0.0 0.0 0.00 0.00 0.00 68 1021.0
20260502115618 35 252 0.0 0.0 0.00 0.00 0.00 67 1020.9
20260502114631 36 252 0.0 0.0 0.00 0.00 0.00 64 1020.9
20260502113627 37 273 0.0 0.0 0.00 0.00 0.00 62 1020.9
20260502112618 38 232 0.0 0.0 0.00 0.00 0.00 61 1021.0
20260502111628 37 232 0.0 0.0 0.00 0.00 0.00 69 1020.9
20260502110622 36 232 0.0 0.0 0.00 0.00 0.00 68 1021.0
20260502105618 37 232 0.0 0.0 0.00 0.00 0.00 66 1021.0
20260502104636 37 232 0.0 0.0 0.00 0.00 0.00 64 1021.0
20260502103627 37 232 0.0 0.0 0.00 0.00 0.00 63 1020.9
20260502102620 37 232 0.0 0.0 0.00 0.00 0.00 61 1020.9
20260502100624 38 269 0.0 0.0 0.00 0.00 0.00 60 1020.8
20260502090650 38 229 0.0 0.0 0.00 0.00 0.00 64 1020.7
20260502070623 45 262 0.0 0.0 0.00 0.00 0.00 50 1020.8
20260502065618 45 315 0.0 0.0 0.00 0.00 0.00 49 1020.7
20260502064631 44 62 0.0 0.0 0.00 0.00 0.00 56 1020.7
20260502063644 44 282 0.0 0.0 0.00 0.00 0.00 51 1020.5
20260502062633 45 293 0.0 0.0 0.00 0.00 0.00 50 1020.5
20260502061653 45 294 0.0 0.0 0.00 0.00 0.00 53 1020.5
20260502060651 44 292 0.0 0.0 0.00 0.00 0.00 52 1020.3
20260502055625 43 209 0.0 0.0 0.00 0.00 0.00 63 1020.2
20260502054619 44 204 0.0 0.0 0.00 0.00 0.00 58 1020.2
20260502053631 46 204 0.0 0.0 0.00 0.00 0.00 66 1020.1
20260502052622 46 148 0.0 0.0 0.00 0.00 0.00 70 1020.1
20260502051633 48 148 0.0 0.0 0.00 0.00 0.00 74 1020.1
20260502050630 48 148 0.0 0.0 0.00 0.00 0.00 69 1020.1
20260502045626 48 146 0.0 0.0 0.00 0.00 0.00 65 1020.2
20260502044621 49 206 0.0 0.0 0.00 0.00 0.00 46 1020.2
20260502043634 49 144 0.0 0.0 0.00 0.00 0.00 44 1020.1
20260502042629 50 144 0.0 0.0 0.00 0.00 0.00 43 1020.0
20260502041629 49 290 0.0 0.0 0.00 0.00 0.00 41 1019.9
20260502040621 49 265 0.0 2.0 0.00 0.00 0.00 41 1019.8
20260502035617 50 262 1.0 3.0 0.00 0.00 0.00 39 1019.6
20260502034650 50 248 0.0 0.0 0.00 0.00 0.00 38 1019.6
20260502033622 50 267 0.0 0.0 0.00 0.00 0.00 36 1019.4
20260502032618 51 260 0.0 4.0 0.00 0.00 0.00 34 1019.4
20260502031632 50 267 1.0 6.0 0.00 0.00 0.00 37 1019.2
20260502030623 49 257 0.0 0.0 0.00 0.00 0.00 38 1019.0
20260502025617 48 256 0.0 0.0 0.00 0.00 0.00 44 1018.8
20260502024650 49 279 0.0 0.0 0.00 0.00 0.00 40 1018.8
20260502023622 50 267 0.0 0.0 0.00 0.00 0.00 40 1018.8
20260502022617 50 268 0.0 0.0 0.00 0.00 0.00 41 1018.8
20260502021631 50 279 0.0 0.0 0.00 0.00 0.00 41 1018.7
20260502020622 52 266 0.0 0.0 0.00 0.00 0.00 39 1018.6
20260502015637 54 277 0.0 0.0 0.00 0.00 0.00 41 1018.6
20260502014649 53 152 0.0 0.0 0.00 0.00 0.00 56 1018.5
20260502013618 53 144 0.0 0.0 0.00 0.00 0.00 45 1018.5
20260502012617 54 128 0.0 0.0 0.00 0.00 0.00 46 1018.5
20260502011632 54 140 0.0 0.0 0.00 0.00 0.00 39 1018.5
20260502010624 52 139 0.0 0.0 0.00 0.00 0.00 53 1018.6
20260502005620 52 136 0.0 0.0 0.00 0.00 0.00 61 1018.6
20260502004633 52 130 0.0 0.0 0.00 0.00 0.00 63 1018.6
20260502003626 52 122 0.0 0.0 0.00 0.00 0.00 67 1018.6
20260502002623 52 123 0.0 0.0 0.00 0.00 0.00 64 1018.6
20260502001616 52 107 0.0 0.0 0.00 0.00 0.00 58 1018.6
20260502000647 52 103 0.0 0.0 0.00 0.00 0.00 60 1018.7
20260501235622 53 103 0.0 0.0 0.00 0.00 0.00 61 1018.7
20260501234634 53 111 0.0 0.0 0.00 0.00 0.00 35 1018.7
20260501233629 51 103 0.0 0.0 0.00 0.00 0.00 47 1018.8
20260501232647 52 103 0.0 0.0 0.00 0.00 0.00 69 1018.8